Weather History for Kalispell, MT

Change the Weather History Date:

Tuesday, January 14, 2014

  Actual Average Record
Temperature  
Mean Temperature 32 °F 24 °F  
Max Temperature 40 °F 31 °F 48 °F (1921)
Min Temperature 24 °F 16 °F -26 °F (1972)
Degree Days  
Heating Degree Days 33 41  
Month to date heating degree days 531 593  
Since 1 July heating degree days 3970 4107  
Cooling Degree Days 0 0  
Month to date cooling degree days 0 0  
Year to date cooling degree days 0 0  
Moisture  
Dew Point 29 °F    
Average Humidity 81    
Maximum Humidity 92    
Minimum Humidity 70    
Precipitation  
Precipitation T in 0.04 in 0.50 in (2000)
Month to date precipitation 0.73 0.69  
Year to date precipitation 0.73 0.69  
Snow  
Snow 0.00 in - - ()
Month to date snowfall 10.1  
Year to date snowfall 10.1  
Since 1 July snowfall 43.6  
Snow Depth 1.00 in    
Sea Level Pressure  
Sea Level Pressure 30.51 in    
Wind  
Wind Speed 6 mph (South)    
Max Wind Speed 13 mph    
Max Gust Speed 14 mph    
Visibility 10 miles    
Events      
T = Trace of Precipitation, MM = Missing Value Source: NWS Daily Summary

Daily Weather History Graph

Daily Weather History Graph

Search for Another Location

Airport:

Trip Planner

Search our weather history database for the weather conditions in past years. The results will help you decide how hot, cold, wet, or windy it might be!

Date:

Astronomy

Jan. 14, 2014 Rise Set
Actual Time 8:23 AM MST 5:09 PM MST
Civil Twilight 7:48 AM MST 5:44 PM MST
Nautical Twilight 7:09 AM MST 6:23 PM MST
Astronomical Twilight 6:31 AM MST 7:00 PM MST
Moon 4:20 PM MST (1/14) 6:59 AM MST (1/14)
Length of Visible Light 9h 56m
Length of Day
8h 45m
Waxing Gibbous, 98% of the Moon is Illuminated
Jan 14
Waxing Gibbous
Jan 15
Full
Jan 23
Last Quarter
Jan 30
New
Feb 6
First Quarter

Hourly Weather History & Observations

Time (MST) Temp. Windchill Dew Point Humidity Pressure Visibility Wind Dir Wind Speed Gust Speed Precip Events Conditions
12:55 AM 37.0 °F 34.5 °F 28.0 °F 70% 30.38 in 10.0 mi South 3.5 mph - N/A   Scattered Clouds
1:55 AM 34.0 °F - 28.0 °F 79% 30.40 in 10.0 mi Calm Calm - N/A   Mostly Cloudy
2:55 AM 32.0 °F - 26.1 °F 79% 30.44 in 10.0 mi Calm Calm - N/A   Partly Cloudy
3:55 AM 32.0 °F 27.5 °F 26.1 °F 79% 30.46 in 10.0 mi SW 4.6 mph - N/A   Partly Cloudy
4:55 AM 28.0 °F - 25.0 °F 88% 30.49 in 10.0 mi Calm Calm - N/A   Clear
5:55 AM 26.1 °F - 24.1 °F 92% 30.52 in 10.0 mi Calm Calm - N/A   Clear
6:55 AM 25.0 °F 18.1 °F 23.0 °F 92% 30.55 in 10.0 mi NNW 5.8 mph - N/A   Partly Cloudy
7:55 AM 25.0 °F - 21.9 °F 88% 30.56 in 10.0 mi Calm Calm - N/A   Clear
8:55 AM 28.0 °F - 25.0 °F 88% 30.57 in 10.0 mi Calm Calm - N/A   Scattered Clouds
9:55 AM 33.1 °F 27.7 °F 28.0 °F 82% 30.58 in 10.0 mi SSW 5.8 mph - N/A   Overcast
10:55 AM 37.0 °F 31.0 °F 30.9 °F 79% 30.57 in 10.0 mi South 8.1 mph - N/A   Overcast
11:55 AM 39.0 °F 33.4 °F 30.9 °F 73% 30.57 in 10.0 mi SSE 8.1 mph - N/A   Overcast
12:55 PM 39.0 °F 33.4 °F 30.9 °F 73% 30.56 in 10.0 mi SSE 8.1 mph - N/A   Overcast
1:55 PM 39.0 °F 32.8 °F 30.9 °F 73% 30.55 in 10.0 mi SSE 9.2 mph - N/A   Overcast
2:55 PM 39.0 °F 33.4 °F 32.0 °F 76% 30.53 in 10.0 mi South 8.1 mph - 0.00 in   Overcast
3:55 PM 37.9 °F 32.1 °F 32.0 °F 79% 30.53 in 10.0 mi SSE 8.1 mph - N/A   Overcast
4:55 PM 37.9 °F 31.5 °F 32.0 °F 79% 30.53 in 10.0 mi SSE 9.2 mph - N/A   Overcast
5:55 PM 37.9 °F 31.5 °F 30.9 °F 76% 30.53 in 10.0 mi South 9.2 mph - N/A   Overcast
6:55 PM 37.9 °F 32.1 °F 30.0 °F 73% 30.52 in 10.0 mi South 8.1 mph - N/A   Mostly Cloudy
7:55 PM 37.9 °F 32.1 °F 30.0 °F 73% 30.50 in 10.0 mi SSW 8.1 mph - N/A   Partly Cloudy
8:55 PM 37.9 °F 33.5 °F 30.0 °F 73% 30.50 in 10.0 mi South 5.8 mph - N/A   Partly Cloudy
9:55 PM 37.0 °F 30.4 °F 30.0 °F 76% 30.48 in 10.0 mi South 9.2 mph - N/A   Scattered Clouds
10:55 PM 35.1 °F 29.3 °F 30.0 °F 82% 30.47 in 10.0 mi South 6.9 mph - N/A   Mostly Cloudy
11:55 PM 37.0 °F 31.0 °F 30.0 °F 76% 30.41 in 10.0 mi South 8.1 mph - N/A   Mostly Cloudy